Home   Weather   Eisenhüttenstadt   Past weeks

Flag for Germany Past Weather in Eisenhüttenstadt, Brandenburg, Germany — Yesterday and Last 2 Weeks

Now
49 °F

Fog.


Feels Like: 49 °F
Forecast: 51 / 71 °F
Wind: 2 mph from Southeast

Location: Zielona Gora

Current Time: Sep 27, 2016 at 5:45:22 AM

Latest Report: Sep 27, 2016 at 5:00 AM


Visibility: 5 mi

Pressure: 30.27 "Hg

Humidity: 89%

Dew Point: 46 °F

Location of EisenhüttenstadtLocation

Past Weather in Eisenhüttenstadt — Graph

°F

Eisenhüttenstadt Temperature Yesterday

Maximum temperature yesterday: 67 °F (at 3:00 PM)
Minimum temperature yesterday: 48 °F (at 7:00 AM)
Average temperature yesterday: 57 °F

High & Low Weather Summary for the Past Weeks

 TemperatureHumidityPressure
High86 °F (Sep 12, 4:00 PM)88% (Sep 19, 1:00 AM)30.31 "Hg (Sep 19, 1:00 AM)
Low47 °F (Sep 22, 5:00 AM)33% (Sep 14, 2:00 PM)29.82 "Hg (Sep 17, 5:00 AM)
Average62 °F60%30.09 "Hg
* Reported Sep 12 4:00 AM — Sep 27 4:00 AM, Eisenhüttenstadt, Weather by CustomWeather, © 2016

Note: Actual official high and low records may vary slightly from our data, if they occured in-between our weather recording intervals... More about our weather records

Advertising

Eisenhüttenstadt Weather History for the Previous 24 Hours

Scroll right to see more
 ConditionsComfort  
Time TempWeatherWind HumidityBarometerVisibility
4:00 AM
Tue, Sep 27
50 °FClear.2 mph87%30.26 "Hg6 mi
3:00 AM50 °FClear.2 mph84%30.25 "Hg9 mi
2:00 AM52 °FClear.2 mph79%30.25 "Hg12 mi
1:00 AM53 °FClear.3 mph76%30.25 "Hg16 mi
12:00 AM54 °FClear.3 mph73%30.25 "Hg16 mi
11:00 PM
Mon, Sep 26
56 °FClear.2 mph67%30.25 "Hg19 mi
10:00 PM57 °FClear.1 mph61%30.24 "Hg22 mi
9:00 PM58 °FClear.1 mph60%30.23 "Hg22 mi
8:00 PM58 °FPassing clouds.1 mph59%30.22 "Hg22 mi
7:00 PM60 °FPassing clouds.1 mph53%30.21 "Hg25 mi
6:00 PM64 °FPassing clouds.1 mph47%30.20 "Hg28 mi
5:00 PM66 °FPassing clouds.3 mph43%30.19 "Hg31 mi
4:00 PM67 °FPassing clouds.3 mph41%30.19 "Hg31 mi
3:00 PM67 °FPassing clouds.3 mph38%30.19 "Hg31 mi
2:00 PM66 °FScattered clouds.3 mph42%30.20 "Hg25 mi
1:00 PM65 °FPartly sunny.3 mph47%30.20 "Hg25 mi
12:00 PM63 °FPartly sunny.5 mph51%30.21 "Hg19 mi
11:00 AM60 °FOvercast.3 mph57%30.21 "Hg12 mi
10:00 AM56 °FOvercast.3 mph65%30.20 "Hg9 mi
9:00 AM51 °FOvercast.3 mph74%30.20 "Hg9 mi
8:00 AM48 °FOvercast.3 mph81%30.21 "Hg9 mi
7:00 AM48 °FOvercast.2 mph80%30.19 "Hg12 mi
6:00 AM49 °FPassing clouds.2 mph78%30.18 "Hg19 mi
5:00 AM49 °FPassing clouds.3 mph75%30.19 "Hg25 mi
Weather by CustomWeather, © 2016

See weather overviewHow to use our weather pages